星链-3597 (STARLINK-3597 )

导读

STARLINK-3597是美国SpaceX公司星链(Starlink)星座中的一颗低轨通信卫星,于2022年3月3日发射升空。星链计划旨在构建覆盖全球的卫星互联网,该卫星采用平板设计,搭载高通量通信载荷与霍尔推进器,服役后将为偏远地区、海洋等区域提供高速低延迟的宽带网络服务,同时也可支持军事通信等应用,不过星链大规模部署也带来了太空碎片等争议。

基本信息
目录编号:
51898
目录名称:
STARLINK-3597
国际标识:
2022-022AY
轨道中心:
EARTH
卫星名称:
星链-3597
卫星全名:
星链-3597 (STARLINK-3597 )
卫星状态:
在轨 (已飞行1654 天)
发射日期:
2022-03-03 UTC
国别 :
美国 (US)
星等 :
--
该卫星已列入 空间交会检测服务 Space Conjunction Data Service (SCDS) ,当前飞行风险评估等级: 无高风险
轨道信息
数据来源 国际轨道数据 AOE轨道数据
星历时间 2026-09-11T23:23:57+0800
16小时前
查看轨道信息
2026-09-10T23:00:00+0800
1天前
查看轨道信息
半长轴 6840.886km 6840.879km
偏心率 0.0001153 0.0001973
轨道倾角 53.159° 53.160°
近地点辐角 95.825° 4.224°
升交点赤经 228.797° 233.557°
平近点角 264.289° 137.041°
近地点 461.96km 461.392km
远地点 463.538km 464.092km
周期 93.849分钟 93.849分钟
每日圈数 15.343849 15.343871
详细信息
固有亮度:
5
最大亮度:
2.5
卫星平台:
Starlink v1.5
覆盖范围:
全球
运营商:
太空探索技术公司
运营商所在国:
美国
制造商(研发单位):
太空探索技术公司
制造商所在国:
美国
使用方式:
暂无
卫星简介
星链(Starlink)计划是由太空探索技术公司(SpaceX)提出的一个巨型低轨卫星互联网星座项目,计划在2019年至2024年间在太空搭建由约1.2万颗卫星组成的“星链”网络,其中1584颗将部署在地球上空550千米处的近地轨道,并从2020年开始工作。该卫星仍在工作。
2D轨道图
3D轨道图
轨道高度分析图
轨道倾角分析图
轨道综合分析图
查看轨道综合分析图
交会数据列表
事件ID 空间交会对象 最接近时刻(TCA) 交会距离 交会风险概率(CRP) 交会风险指数(CRI) 操作
CDM_260913-173905-189805-305521
2026-09-13T
17:39:29+0000
1.463 km
极远距离
7.098278E-6 低风险 0.52
CDM_260914-090205-083105-189821
2026-09-14T
09:02:19+0000
2.614 km
极远距离
1.452935E-6 低风险 0.38
CDM_260909-095105-189805-419621
2026-09-09T
09:51:26+0000
2.915 km
极远距离
2.364284E-7 极低风险 0.22
与全量物体交会距离演化趋势
与全量物体交会风险概率演化趋势